Temp
64 64 63 62 62 62 62 61 60 60 59 59 59 59 60 60 60 60 59 58 59 59 60 60 61 62 70 72 73 83 75 78 81 83 78 75 71 67 64 66 68 62 66 71 72 71 72
63 63 62 62 62 62 62 60 60 59 59 59 59 59 59 59 59 59 59 58 58 58 59 60 61 62 69 66 81 83 81 84 82 77 78 76 71 72 67 66 62 67 69 68 70 70 69
63 62 62 61 61 61 60 59 59 59 59 59 58 58 58 58 58 58 58 58 58 58 59 60 61 69 69 71 79 78 85 77 79 78 75 78 76 72 68 66 71 69 64 67 68 68 67
62 62 62 60 60 59 59 59 59 59 59 58 59 58 58 57 57 57 57 57 57 58 59 60 61 65 66 83 78 84 81 81 84 83 79 82 77 70 67 69 69 63 60 55 66 69 69
62 62 61 60 59 59 58 58 58 59 59 58 58 58 58 57 56 57 57 57 58 59 60 60 65 65 65 82 80 82 76 78 79 81 79 86 75 67 67 59 54 56 49 53 60 65 63
62 61 61 60 59 59 58 58 58 58 58 58 58 58 58 57 56 56 56 57 60 62 65 73 74 63 74 71 77 80 79 80 76 75 74 72 65 59 58 53 46 49 51 49 50 60 60
62 61 60 60 59 59 59 58 58 58 58 58 58 58 57 57 57 56 58 64 62 64 64 62 66 68 72 77 79 77 79 77 74 69 59 65 57 51 55 58 59 57 53 50 53 60 59
61 60 60 60 59 59 59 58 57 57 57 57 57 57 57 57 57 57 59 59 58 59 55 67 71 72 76 74 69 74 77 68 66 58 63 58 53 61 66 63 60 56 52 50 55 62 58
59 59 59 59 59 59 59 58 57 57 57 57 57 57 57 56 56 60 60 58 63 63 52 64 71 71 71 73 67 69 71 66 62 60 58 53 59 68 64 58 57 53 52 51 52 56 53
58 58 58 59 59 58 58 57 57 57 57 57 57 57 56 55 60 58 57 63 62 61 48 59 65 69 73 72 65 73 73 66 64 58 60 57 64 63 58 57 57 49 59 58 55 50 40
58 58 58 58 58 57 56 57 57 57 57 56 56 56 55 58 57 56 60 59 60 58 33 62 64 76 72 65 66 68 72 68 58 59 58 56 60 58 55 57 59 54 58 55 52 45 43
57 57 57 57 56 56 56 56 56 56 56 56 56 56 55 58 55 55 57 57 57 45 35 57 65 63 63 65 65 67 67 67 63 59 58 58 64 60 57 60 59 59 54 50 47 44 37
57 57 57 56 55 55 55 55 55 56 56 56 56 55 59 60 53 55 55 55 42 34 60 55 57 62 60 57 60 61 56 51 46 45 46 54 56 60 62 53 56 52 43 33 36 34 35
56 56 55 55 55 55 55 55 55 55 55 56 55 55 57 59 55 55 54 50 37 53 54 61 60 59 55 57 56 57 53 48 52 49 43 42 43 53 60 53 47 46 44 34 30 30 33
55 55 55 55 55 55 55 55 55 55 55 55 55 54 53 55 56 54 50 34 39 52 57 57 57 51 50 55 54 54 48 48 50 49 42 40 44 56 59 57 53 49 42 48 40 37 32
54 54 55 54 54 54 54 54 54 55 55 55 51 51 52 56 55 53 46 41 50 59 59 58 50 52 47 50 49 49 47 51 50 52 49 45 39 51 56 56 55 49 52 39 37 29 28
53 53 54 54 53 53 53 54 54 54 55 54 51 48 53 55 54 48 37 44 55 61 61 56 51 51 51 50 49 48 46 49 52 51 51 45 41 43 49 46 43 46 42 42 42 35 28
51 52 52 53 53 53 53 53 53 54 54 53 48 43 53 54 45 40 40 53 55 57 60 57 54 53 50 50 49 48 45 47 52 49 43 45 40 33 41 51 52 49 43 42 31 32 33
50 51 52 52 52 53 53 53 53 53 54 49 44 44 51 51 38 38 47 54 57 56 55 54 51 53 53 48 43 46 45 50 52 47 42 43 37 31 39 44 47 44 45 45 42 36 30
49 49 51 51 52 52 52 53 53 53 54 49 45 37 42 44 44 44 46 48 50 56 55 56 53 53 49 46 49 44 44 50 50 48 50 47 38 35 31 35 39 37 40 42 38 30 31
49 50 50 51 51 52 52 52 53 53 53 49 42 39 44 35 40 44 47 49 48 48 53 53 49 50 48 42 44 44 46 46 48 49 46 42 34 37 40 41 40 39 39 39 37 38 31
50 49 49 50 51 51 52 52 52 53 52 46 40 41 43 43 46 44 43 45 47 50 49 47 47 49 47 43 43 43 45 43 42 44 42 43 32 35 34 40 40 36 39 39 40 39 39
51 51 51 51 51 51 51 51 52 53 52 43 42 44 44 42 42 39 40 48 49 49 50 50 49 45 41 44 46 46 45 45 45 42 39 38 34 29 27 36 34 29 37 39 40 36 37
51 51 51 51 51 51 51 50 51 52 52 48 45 44 39 33 40 43 50 49 48 49 46 46 47 44 46 51 49 47 46 46 45 43 44 37 34 30 24 29 12 37 45 44 38 37 36
50 50 50 50 50 50 50 50 50 51 52 47 44 44 42 33 43 46 47 45 44 44 42 43 45 47 48 46 36 33 31 37 41 43 42 42 34 25 17 23 30 37 42 40 37 30 35
49 50 50 49 49 49 49 49 50 51 52 45 42 43 43 36 35 45 42 44 37 35 37 41 47 47 46 38 30 19 21 32 34 39 44 42 39 29 18 13 15 35 42 47 44 26 35
49 49 49 49 49 49 49 49 49 50 51 44 41 43 43 32 39 41 39 40 42 37 35 40 42 40 41 31 26 23 25 40 31 32 32 32 31 29 25 17 27 41 43 45 29 28 34
49 49 49 49 49 49 49 49 49 50 50 44 41 42 43 32 37 43 45 39 41 38 34 40 35 35 32 29 28 28 27 34 33 39 35 33 29 26 27 23 21 42 40 33 33 35 33
48 48 48 48 48 48 49 49 49 50 51 48 42 45 45 37 37 44 45 45 45 42 39 39 39 39 37 32 29 28 27 27 31 27 42 32 35 30 34 31 37 39 36 37 36 33 32
MSLP
1015.48 1016.26 1016.87 1017.34 1017.53 1018.01 1018.37 1018.65 1018.82 1019.03 1019.14 1019.19 1019.21 1019.02 1018.76 1018.48 1018.13 1017.73 1017.37 1017.00 1016.59 1016.21 1015.73 1015.18 1014.73 1014.04 1013.11 1013.05 1012.57 1011.50 1011.56 1011.38 1011.26 1011.13 1011.33 1011.46 1011.60 1011.88 1012.21 1012.04 1011.60 1011.43 1011.43 1010.67 1010.27 1010.02 1009.51
1015.15 1015.97 1016.53 1017.14 1017.46 1017.85 1018.28 1018.57 1018.74 1018.93 1019.06 1019.11 1019.14 1019.03 1018.73 1018.41 1017.99 1017.53 1017.08 1016.67 1016.34 1016.02 1015.67 1015.25 1014.82 1014.05 1013.61 1013.00 1012.03 1011.78 1011.51 1011.30 1011.35 1011.29 1011.29 1011.34 1011.63 1011.77 1012.06 1012.24 1012.23 1011.87 1011.64 1011.15 1010.64 1010.29 1009.75
1014.83 1015.71 1016.19 1016.87 1017.47 1017.72 1018.29 1018.59 1018.81 1018.93 1019.02 1019.03 1018.96 1018.87 1018.62 1018.27 1017.83 1017.34 1016.87 1016.47 1016.14 1015.79 1015.53 1015.31 1015.07 1014.66 1013.80 1012.73 1012.06 1011.75 1011.53 1011.62 1011.48 1011.39 1011.36 1011.10 1011.21 1011.78 1012.11 1012.22 1011.99 1012.01 1012.02 1011.32 1010.88 1010.63 1010.32
1014.49 1015.36 1015.96 1016.58 1017.47 1017.61 1018.23 1018.43 1018.78 1018.97 1019.12 1019.12 1018.96 1018.66 1018.40 1018.10 1017.66 1017.19 1016.62 1016.12 1015.74 1015.32 1015.21 1015.07 1015.05 1014.70 1013.56 1012.04 1011.86 1011.70 1011.78 1011.59 1011.20 1010.98 1011.14 1010.96 1011.01 1011.62 1012.13 1012.20 1012.36 1012.44 1012.61 1012.55 1011.38 1011.21 1010.97
1014.26 1014.95 1015.76 1016.44 1017.24 1017.47 1018.34 1018.43 1018.68 1018.80 1018.96 1019.05 1019.03 1018.80 1018.32 1017.94 1017.50 1016.97 1016.24 1015.57 1015.08 1014.85 1014.91 1014.85 1014.74 1014.52 1013.39 1012.10 1012.14 1012.04 1012.05 1011.90 1011.56 1011.11 1011.03 1011.01 1011.27 1012.01 1012.37 1013.00 1013.53 1013.63 1013.64 1013.30 1012.34 1012.01 1012.10
1013.82 1014.82 1015.39 1016.27 1016.96 1017.32 1018.35 1018.53 1018.60 1018.77 1018.84 1018.99 1019.01 1018.85 1018.42 1017.74 1017.31 1016.81 1015.91 1015.29 1014.78 1014.64 1014.90 1014.72 1014.76 1014.74 1013.45 1013.29 1012.83 1012.43 1011.98 1011.81 1011.84 1011.61 1011.55 1011.54 1012.14 1012.85 1013.41 1013.82 1014.44 1014.34 1014.16 1013.79 1013.56 1013.11 1012.64
1013.60 1014.53 1015.42 1015.84 1016.95 1017.42 1018.32 1018.63 1018.74 1018.67 1018.77 1018.70 1018.89 1018.85 1018.54 1017.76 1017.21 1016.73 1015.80 1015.23 1015.83 1015.66 1015.60 1015.65 1015.23 1014.53 1013.80 1013.44 1012.83 1012.82 1012.32 1012.06 1012.13 1012.35 1012.74 1012.52 1013.29 1013.72 1013.86 1013.89 1014.05 1014.31 1014.64 1014.53 1013.89 1013.66 1013.70
1013.45 1014.20 1014.98 1015.97 1016.77 1017.43 1017.99 1018.66 1018.92 1018.81 1018.92 1018.49 1018.56 1018.66 1018.49 1017.88 1017.23 1016.57 1016.28 1017.52 1018.20 1018.29 1017.00 1015.51 1014.88 1014.25 1013.82 1013.64 1013.53 1013.21 1012.76 1013.07 1013.17 1013.44 1013.24 1013.58 1013.81 1013.77 1013.79 1013.99 1014.38 1014.78 1015.01 1015.15 1014.51 1014.07 1014.61
1013.34 1013.94 1014.97 1015.79 1016.58 1017.40 1017.59 1018.42 1018.84 1018.84 1019.00 1018.70 1018.38 1018.61 1018.52 1017.89 1017.31 1017.22 1017.76 1018.38 1018.13 1018.02 1017.83 1015.99 1014.64 1014.26 1014.02 1013.96 1013.92 1013.65 1013.44 1013.52 1013.69 1013.94 1014.08 1014.20 1014.14 1013.78 1014.22 1014.73 1015.02 1015.25 1015.60 1015.73 1015.82 1014.94 1015.50
1013.18 1013.66 1014.72 1015.63 1016.25 1017.29 1017.60 1018.18 1018.74 1018.51 1018.82 1018.71 1018.18 1018.36 1018.27 1017.59 1017.62 1018.04 1018.51 1018.39 1018.12 1018.06 1017.79 1016.24 1014.85 1014.33 1014.07 1013.99 1014.13 1013.72 1013.54 1014.02 1014.30 1014.71 1014.58 1014.63 1014.42 1014.29 1014.76 1015.32 1015.62 1015.72 1015.79 1015.99 1016.15 1016.39 1016.90
1012.80 1013.52 1014.53 1015.53 1016.35 1017.38 1017.38 1018.09 1018.71 1018.42 1018.63 1018.67 1018.18 1018.09 1018.15 1017.69 1017.97 1018.42 1018.94 1018.37 1018.02 1018.30 1017.77 1016.24 1014.99 1014.31 1014.20 1014.58 1014.56 1014.21 1013.89 1014.26 1015.05 1015.39 1015.50 1015.26 1014.76 1014.88 1015.52 1016.15 1016.01 1016.30 1016.08 1016.28 1016.50 1017.14 1017.58
1012.67 1013.43 1014.51 1015.68 1016.50 1016.77 1017.35 1018.47 1018.41 1018.60 1018.51 1018.55 1018.23 1017.98 1018.34 1018.16 1018.43 1018.83 1018.61 1018.36 1018.54 1018.42 1017.19 1015.98 1015.14 1014.80 1014.87 1014.86 1015.01 1014.89 1015.02 1015.40 1015.77 1015.91 1015.91 1015.90 1015.32 1015.69 1015.98 1016.36 1016.53 1016.63 1016.53 1016.67 1017.16 1017.93 1018.78
1012.50 1013.45 1014.46 1015.42 1016.25 1017.08 1017.82 1018.41 1018.47 1018.66 1018.55 1018.50 1018.13 1018.60 1018.10 1018.67 1019.09 1018.64 1018.45 1018.81 1019.04 1018.53 1016.71 1016.31 1015.66 1015.35 1015.46 1015.74 1015.86 1016.20 1017.38 1017.90 1018.22 1018.02 1018.08 1017.32 1016.96 1016.62 1016.36 1016.80 1017.06 1017.49 1018.12 1018.82 1019.08 1019.63 1019.92
1012.68 1013.55 1014.49 1015.48 1016.45 1017.35 1017.79 1018.35 1018.52 1018.42 1018.98 1018.54 1018.86 1018.20 1018.96 1019.14 1019.13 1018.38 1018.63 1019.36 1019.10 1017.86 1016.93 1016.19 1015.91 1015.83 1016.09 1016.42 1016.74 1017.28 1018.23 1019.37 1019.54 1019.75 1019.83 1019.47 1018.58 1017.99 1017.34 1017.68 1018.16 1018.57 1019.10 1020.28 1020.98 1021.35 1021.01
1012.58 1013.50 1014.66 1015.57 1016.56 1017.31 1017.81 1018.41 1018.67 1018.89 1018.76 1018.62 1017.87 1018.86 1019.67 1019.44 1018.85 1018.70 1019.20 1019.79 1018.92 1017.89 1017.08 1016.54 1016.46 1016.50 1016.76 1016.98 1017.44 1018.05 1019.38 1020.46 1020.90 1020.86 1021.09 1020.97 1019.98 1018.92 1018.38 1018.17 1018.51 1019.02 1019.70 1020.23 1021.27 1021.88 1021.91
1012.83 1013.65 1014.93 1015.98 1016.76 1017.49 1018.02 1018.38 1018.37 1018.48 1018.63 1018.66 1019.23 1019.85 1020.01 1019.34 1019.12 1019.32 1019.92 1019.89 1018.76 1017.70 1017.16 1016.81 1016.93 1017.13 1017.31 1017.63 1018.18 1018.92 1020.20 1021.15 1021.55 1021.68 1021.69 1022.01 1021.39 1020.38 1019.31 1018.85 1019.09 1019.35 1020.10 1020.95 1022.20 1023.34 1023.35
1013.25 1014.26 1015.34 1016.28 1016.93 1017.38 1017.79 1018.20 1018.45 1018.61 1018.96 1019.17 1019.57 1020.14 1020.07 1019.49 1019.60 1019.95 1020.59 1019.82 1018.68 1017.88 1017.39 1017.55 1017.59 1017.51 1017.74 1018.21 1018.79 1019.67 1021.12 1021.98 1022.01 1022.22 1022.19 1022.66 1022.68 1021.84 1020.79 1020.40 1020.57 1020.54 1021.38 1022.20 1023.07 1024.28 1024.73
1013.85 1015.01 1016.37 1016.68 1017.20 1017.69 1018.21 1018.75 1018.79 1018.83 1019.06 1019.15 1019.84 1020.76 1020.35 1019.98 1020.72 1020.86 1020.60 1019.29 1018.48 1018.28 1017.84 1017.84 1018.10 1018.19 1018.41 1018.73 1019.36 1020.30 1021.54 1022.23 1022.61 1022.88 1023.53 1024.00 1023.94 1023.63 1022.69 1021.55 1021.27 1021.66 1022.92 1023.53 1024.67 1025.45 1025.60
1015.72 1016.04 1016.91 1017.12 1017.57 1018.07 1018.34 1018.73 1018.86 1018.99 1018.94 1019.48 1020.51 1021.37 1020.86 1020.81 1021.26 1021.47 1020.22 1019.26 1018.69 1018.52 1018.26 1018.31 1018.55 1018.75 1019.00 1019.46 1020.22 1021.23 1022.34 1023.04 1023.08 1023.64 1024.24 1024.76 1025.12 1024.93 1023.69 1022.94 1022.69 1023.16 1023.81 1024.42 1025.14 1025.81 1025.97
1016.53 1016.99 1017.15 1017.42 1017.92 1018.32 1018.55 1018.83 1019.12 1019.30 1019.21 1019.65 1020.80 1021.92 1021.86 1021.95 1021.74 1020.98 1020.42 1019.82 1019.26 1018.89 1018.67 1018.62 1019.04 1019.20 1019.79 1020.30 1020.72 1021.97 1022.87 1023.60 1023.86 1024.26 1024.58 1024.92 1025.73 1025.72 1025.18 1024.94 1025.01 1024.72 1024.57 1024.86 1025.43 1026.13 1025.95
1017.11 1017.46 1017.36 1018.11 1018.48 1018.54 1018.90 1018.82 1019.00 1019.28 1019.37 1019.80 1020.90 1021.44 1021.00 1022.22 1021.93 1020.98 1020.51 1019.96 1019.55 1019.47 1019.33 1019.28 1019.65 1020.04 1020.64 1021.33 1021.83 1022.41 1023.37 1024.15 1024.51 1024.93 1025.23 1025.70 1026.39 1026.47 1026.12 1025.80 1025.65 1025.50 1025.48 1025.45 1025.66 1025.65 1026.24
1017.65 1017.81 1018.10 1018.79 1018.87 1018.69 1018.79 1019.24 1019.27 1019.48 1019.54 1020.23 1020.94 1021.45 1021.29 1021.28 1021.09 1021.13 1020.81 1020.37 1019.87 1020.08 1020.05 1020.23 1020.45 1020.94 1021.46 1022.11 1022.63 1023.25 1023.70 1024.36 1024.64 1025.59 1025.79 1026.13 1026.86 1027.11 1027.09 1026.61 1026.32 1026.04 1025.77 1025.37 1025.32 1025.78 1026.32
1017.69 1017.76 1018.81 1019.44 1019.57 1019.57 1019.31 1019.25 1019.21 1019.53 1019.46 1020.31 1020.79 1020.61 1020.73 1021.11 1021.14 1021.23 1020.73 1020.25 1020.13 1020.24 1021.05 1021.17 1021.21 1022.01 1022.62 1023.12 1023.29 1023.67 1024.08 1024.45 1024.69 1025.40 1026.21 1026.91 1027.72 1028.36 1028.24 1027.74 1027.04 1026.13 1025.43 1025.41 1025.70 1026.90 1027.51
1018.65 1019.00 1019.59 1019.98 1020.06 1019.34 1019.46 1019.39 1019.03 1019.27 1019.38 1020.11 1020.63 1020.85 1021.21 1021.73 1021.37 1020.59 1020.26 1020.45 1020.39 1020.58 1021.29 1022.42 1022.19 1022.82 1023.79 1023.55 1023.91 1024.33 1024.81 1024.84 1024.82 1025.20 1025.72 1027.00 1028.07 1029.11 1029.56 1029.11 1028.45 1025.78 1025.31 1025.44 1026.30 1027.82 1028.75
1019.01 1019.23 1019.98 1020.35 1020.08 1019.76 1019.81 1019.56 1019.42 1019.31 1019.39 1020.13 1020.62 1020.77 1021.32 1021.89 1021.29 1020.76 1020.52 1020.98 1021.23 1021.66 1022.79 1023.54 1023.76 1023.90 1023.98 1024.21 1025.61 1026.50 1026.48 1025.78 1025.15 1025.36 1025.98 1026.47 1027.96 1029.77 1030.44 1030.24 1028.04 1026.03 1025.66 1025.70 1026.14 1028.36 1029.27
1020.17 1020.54 1020.76 1020.27 1020.39 1020.06 1019.82 1019.79 1019.59 1019.47 1019.42 1020.03 1020.71 1020.77 1021.41 1022.09 1022.10 1021.45 1021.10 1021.24 1022.18 1022.94 1023.97 1024.33 1024.17 1023.99 1024.51 1026.28 1027.53 1028.16 1027.67 1026.69 1025.94 1025.74 1025.95 1026.84 1027.76 1029.35 1030.66 1030.74 1028.69 1026.08 1025.81 1025.44 1025.95 1028.37 1029.68
1021.24 1021.19 1020.77 1020.45 1020.66 1020.66 1020.32 1020.52 1020.14 1019.90 1019.66 1019.98 1021.04 1020.88 1021.33 1022.88 1022.64 1022.00 1021.72 1021.87 1022.00 1023.09 1024.21 1024.71 1024.92 1025.29 1025.63 1027.03 1028.52 1029.20 1028.30 1026.52 1026.16 1026.01 1026.36 1027.27 1028.29 1029.03 1029.68 1029.60 1027.84 1026.22 1025.93 1025.56 1027.07 1029.25 1029.50
1021.54 1021.46 1021.22 1021.17 1020.69 1020.64 1020.57 1020.47 1020.34 1020.10 1020.04 1020.45 1021.30 1021.07 1021.16 1022.71 1023.22 1022.76 1022.34 1022.19 1022.40 1022.96 1024.06 1024.97 1025.50 1026.22 1027.02 1027.73 1028.46 1028.89 1028.27 1027.12 1026.50 1025.49 1025.58 1026.43 1027.26 1028.25 1028.97 1029.17 1027.77 1026.51 1026.66 1027.01 1028.33 1028.74 1029.86
1021.12 1021.00 1021.00 1020.96 1020.90 1021.09 1021.03 1021.13 1021.19 1020.61 1020.49 1020.73 1021.48 1021.06 1020.96 1022.41 1023.63 1023.28 1022.87 1022.74 1022.60 1022.72 1023.24 1024.36 1024.82 1025.20 1026.10 1027.07 1028.12 1028.66 1028.76 1027.90 1027.05 1026.22 1025.08 1025.70 1025.39 1025.73 1026.54 1027.06 1027.19 1027.16 1027.42 1027.98 1028.52 1029.20 1030.00
Wind_Speed
20 18 17 16 15 13 13 11 10 8 5 4 4 5 7 9 10 10 11 12 13 15 16 16 17 19 5 5 1 4 2 9 7 5 4 5 5 5 5 5 9 2 6 10 12 11 12
19 19 18 16 16 15 14 12 10 9 6 3 3 6 8 9 11 12 13 12 12 14 15 15 15 19 3 5 2 5 3 7 7 4 5 5 2 4 2 3 1 4 8 10 8 10 5
21 19 19 17 15 15 14 12 10 7 5 3 3 6 8 10 12 13 14 14 12 13 13 12 10 4 3 2 3 4 8 3 4 2 3 3 1 5 3 7 3 4 5 9 5 4 4
21 20 19 18 15 15 13 12 10 8 4 2 4 6 9 11 13 14 15 15 14 14 11 9 7 2 2 3 3 8 6 8 8 6 2 7 1 1 3 3 7 6 5 6 7 9 5
22 21 20 17 16 16 13 12 11 8 5 2 5 7 8 11 13 14 16 18 15 10 6 7 2 3 2 5 6 8 2 4 7 5 7 4 1 1 5 3 6 7 2 3 10 5 3
22 21 21 20 17 16 13 12 12 9 6 1 6 9 10 11 13 14 19 9 6 4 2 1 1 4 3 4 5 7 5 4 4 6 7 5 5 3 4 5 1 4 4 5 4 8 8
23 22 22 21 19 17 14 10 9 9 6 3 5 9 12 11 13 12 9 5 8 6 9 1 4 2 2 7 4 6 5 7 6 5 2 4 6 1 4 1 2 2 4 3 5 4 8
22 23 22 22 20 18 17 11 9 8 4 4 4 9 12 12 12 15 3 7 2 3 6 5 5 4 1 2 4 8 5 6 5 4 7 7 5 3 7 8 8 8 6 6 6 6 5
19 23 23 22 21 18 18 13 10 8 3 1 2 7 11 11 10 5 7 4 1 5 2 7 1 3 3 3 3 6 4 4 1 4 4 4 2 7 7 8 8 4 5 4 3 9 4
19 24 24 22 21 18 16 13 9 8 3 2 4 7 10 14 6 1 3 7 4 3 5 1 3 2 3 4 3 2 3 2 6 4 5 1 2 6 6 6 5 4 6 6 6 6 2
23 26 24 22 20 17 15 13 9 8 3 2 5 8 9 7 4 4 4 6 5 4 5 1 1 3 4 1 2 3 2 5 3 4 5 5 5 6 7 4 3 5 6 3 3 4 3
26 26 26 23 20 17 14 11 9 6 4 2 6 9 9 4 4 1 4 3 4 9 2 2 2 1 3 4 4 6 6 9 2 4 2 4 3 4 2 3 4 6 5 6 4 4 3
26 27 25 23 20 17 14 11 9 6 3 2 7 7 4 3 2 4 2 4 8 6 1 1 2 1 2 2 4 6 5 9 5 6 7 7 5 4 5 4 7 11 7 6 7 6 4
27 26 25 23 21 17 14 10 7 6 3 5 5 7 6 1 4 3 4 7 2 3 1 1 2 2 3 2 2 5 3 5 7 5 3 3 4 7 7 3 1 3 3 5 2 3 5
27 26 25 23 20 16 13 11 8 5 3 6 9 4 2 4 4 3 7 5 8 3 1 2 2 2 0 1 2 5 4 2 3 6 4 3 3 5 5 2 3 5 4 3 2 3 3
27 27 24 21 19 16 13 10 8 6 6 6 3 2 2 5 4 5 6 4 2 1 2 2 3 2 2 3 1 3 2 4 3 4 1 3 3 3 5 4 6 2 2 5 4 2 5
26 25 21 20 16 14 11 8 8 7 7 4 4 4 4 5 4 6 5 6 2 4 3 3 1 1 2 3 3 1 2 4 3 4 6 3 3 6 4 2 1 4 5 4 3 4 4
28 25 17 17 15 12 10 7 7 7 6 5 4 4 4 4 5 1 4 4 1 2 4 3 2 1 1 2 2 4 4 1 3 1 3 3 3 3 5 7 1 7 4 4 5 5 1
21 21 17 16 13 11 10 7 6 5 3 4 4 2 4 5 5 2 4 1 3 3 3 3 1 3 3 2 3 5 4 1 4 4 3 1 2 3 4 7 6 6 4 3 2 2 7
19 17 15 14 11 9 8 8 7 5 2 4 4 3 5 4 1 5 4 3 4 3 2 3 3 4 4 2 4 5 4 2 3 3 4 5 2 4 6 2 1 5 8 5 1 3 3
21 18 16 13 8 9 7 7 7 5 2 3 3 4 5 4 4 4 4 7 6 4 1 2 3 3 5 3 1 4 3 3 4 5 2 4 3 1 4 5 3 5 7 4 6 9 6
22 20 18 11 8 8 9 8 6 5 5 4 5 4 3 3 3 7 2 4 8 4 6 3 5 4 2 5 5 5 5 3 5 3 3 1 2 2 4 4 4 5 7 8 5 1 4
18 17 14 11 10 9 9 8 7 6 5 2 1 2 4 2 4 6 6 6 10 9 5 6 3 6 5 5 5 5 4 5 6 8 5 4 3 3 4 6 7 4 4 1 2 9 4
16 17 14 11 11 13 12 9 9 5 5 3 2 3 4 3 3 6 6 4 6 5 9 3 6 7 2 3 3 4 4 3 4 4 5 5 5 3 3 4 3 4 2 6 9 7 6
16 16 14 13 14 15 13 13 12 12 6 4 0 3 3 2 1 2 8 8 8 8 6 4 4 1 1 5 5 5 6 6 3 5 6 5 5 2 4 2 8 1 3 2 4 3 6
13 14 13 14 13 14 15 14 14 14 9 5 2 2 4 6 3 4 4 8 6 4 4 3 2 4 7 4 4 5 5 5 3 1 4 5 5 5 3 3 6 4 4 5 4 4 3
12 11 13 14 14 13 14 13 14 15 13 5 1 1 5 5 3 4 3 5 6 5 5 3 3 3 4 3 3 3 5 4 4 7 6 4 2 6 3 3 8 3 4 4 3 2 4
13 11 12 11 13 13 14 14 14 14 10 4 2 2 4 4 3 5 6 4 4 4 6 5 6 4 3 3 4 4 3 5 2 3 6 9 7 5 3 2 9 1 2 2 2 3 2
11 10 10 10 11 11 12 13 13 14 14 3 3 3 2 6 4 1 3 3 4 1 7 0 5 4 5 4 0 3 1 2 2 3 1 4 7 7 9 7 2 4 5 5 5 4 4
Wind_Direction
171 170 166 164 158 154 148 145 141 133 116 80 25 7 349 334 329 324 317 315 318 325 326 326 330 329 355 48 52 262 310 295 302 350 27 13 31 7 359 327 346 66 328 326 330 328 309
167 166 163 164 159 154 152 151 149 146 135 95 14 353 341 328 324 319 315 314 315 318 320 324 331 323 20 84 327 351 286 359 346 342 345 15 327 264 269 314 284 332 311 298 302 305 295
167 167 162 160 162 153 153 153 151 146 132 97 17 351 337 329 320 316 316 313 309 307 309 313 330 336 45 209 9 359 14 322 301 20 316 278 312 55 348 313 316 280 327 327 326 326 345
168 165 162 158 162 150 156 152 150 143 125 44 349 343 334 324 316 315 312 308 303 296 299 300 317 327 228 296 278 17 349 330 331 337 354 267 91 141 163 287 351 332 51 358 307 5 359
166 163 160 158 159 150 158 152 151 143 125 20 334 325 328 322 315 316 313 310 300 292 277 291 23 44 330 322 10 313 350 290 302 300 316 281 45 174 14 44 2 11 335 324 319 79 334
162 163 157 156 155 149 160 158 153 144 133 40 332 322 320 325 319 315 312 298 313 328 87 191 251 42 360 321 291 312 306 284 295 325 350 48 50 37 21 70 229 310 343 316 315 325 11
162 160 159 151 153 149 153 157 158 145 145 105 336 323 316 327 321 319 341 23 17 352 37 96 291 260 310 302 336 352 330 340 4 39 332 341 75 257 246 291 27 2 40 347 296 341 26
166 157 154 154 152 153 149 156 158 151 158 117 358 324 315 322 328 328 66 76 93 197 326 325 260 294 233 356 327 335 26 38 10 340 335 22 64 297 72 33 46 60 51 344 294 321 22
179 155 154 152 153 155 149 157 163 152 177 142 60 323 311 315 324 17 79 63 4 107 80 309 263 59 289 27 310 320 39 343 330 14 18 122 269 61 74 36 33 357 50 337 265 333 35
183 152 151 151 150 153 150 149 165 147 183 308 26 336 317 315 62 325 53 317 2 89 73 319 15 351 350 350 355 311 352 56 360 20 349 50 337 87 67 52 36 345 339 314 327 7 318
163 150 148 149 146 152 143 148 167 151 159 335 9 350 331 11 146 62 286 329 352 57 40 206 322 274 305 44 269 313 341 23 52 317 58 266 332 61 68 34 3 256 317 281 232 190 57
153 148 146 147 146 141 139 155 152 163 138 13 2 4 332 358 45 320 322 355 56 47 260 111 141 31 12 14 6 331 38 26 19 17 343 249 2 42 83 123 56 286 331 6 44 102 68
149 145 144 142 140 140 143 150 148 157 128 29 24 353 44 39 197 304 353 49 44 115 252 118 128 58 195 26 359 33 66 36 39 20 11 352 21 330 47 38 354 31 33 358 5 11 219
148 143 141 139 138 140 139 143 147 136 189 36 348 36 349 113 299 21 54 53 141 184 100 186 108 26 99 30 9 37 61 32 15 44 69 27 316 360 335 98 286 336 99 127 280 276 258
144 138 137 133 134 134 136 143 147 152 72 23 17 26 16 309 344 46 73 70 200 229 278 89 81 137 234 48 98 78 69 89 20 34 81 30 201 314 45 27 91 315 46 181 188 321 9
134 131 128 128 130 132 136 139 128 100 75 44 83 79 330 310 3 56 77 212 190 99 54 78 134 148 142 213 101 103 97 341 107 49 75 320 314 332 298 25 356 102 255 20 8 321 295
121 112 116 120 120 121 120 121 117 115 116 117 69 75 275 359 53 49 144 217 124 55 82 46 73 5 133 157 153 93 62 1 32 349 63 31 88 295 0 64 342 6 7 22 107 135 195
108 107 109 112 113 114 117 119 126 129 138 70 100 86 305 24 65 68 156 199 119 153 43 98 112 315 67 137 159 79 129 78 9 7 63 338 123 290 271 276 333 101 98 69 96 297 245
95 98 106 104 106 111 107 103 109 115 127 123 101 119 324 72 131 237 268 160 78 153 169 128 153 95 18 86 116 109 100 45 61 76 126 63 39 351 358 351 13 35 56 108 226 130 202
101 99 92 86 86 99 107 113 111 125 116 84 99 93 339 42 249 146 161 191 143 5 103 108 123 86 60 71 38 149 120 194 94 97 132 93 135 177 201 122 338 308 329 353 159 241 229
114 111 98 101 92 91 93 99 115 121 53 85 54 222 184 192 265 182 154 185 150 164 58 91 84 152 156 162 140 146 105 109 69 161 91 109 161 272 287 307 302 268 282 286 252 243 226
127 118 105 89 86 88 95 102 111 137 115 80 132 137 28 179 142 161 154 221 162 170 140 212 138 213 106 151 191 180 142 151 178 210 158 137 243 59 297 332 335 286 283 252 254 22 284
101 90 95 100 95 92 90 93 101 162 112 110 300 323 109 261 139 122 198 216 197 126 36 57 192 97 92 159 139 131 100 110 146 154 171 132 126 85 266 339 338 317 209 33 75 49 355
93 93 83 77 76 71 64 58 68 74 173 131 209 111 91 246 154 190 188 165 150 158 131 26 56 101 200 146 112 53 61 106 132 147 141 137 113 118 243 21 352 223 347 125 103 83 48
85 80 80 67 60 61 51 44 42 39 104 111 67 119 116 181 205 55 122 112 79 64 80 81 34 74 278 68 61 27 347 5 256 204 181 144 123 123 132 219 292 331 109 166 193 126 46
95 96 82 72 53 52 50 39 33 34 56 91 63 135 97 123 299 315 96 137 133 111 54 82 24 27 68 85 80 147 214 226 238 110 176 134 114 129 92 152 230 200 195 251 164 212 33
105 94 80 72 61 48 51 40 37 27 29 101 50 11 95 109 344 2 134 171 121 94 102 133 161 68 60 104 102 163 242 213 209 172 174 153 186 194 163 223 282 284 302 302 119 234 65
114 101 86 71 65 51 40 35 28 25 17 79 219 310 118 112 338 14 16 50 71 91 135 186 62 337 55 115 134 216 180 230 230 212 174 174 166 189 147 214 270 22 20 156 162 68 93
96 86 73 66 55 54 48 30 22 25 32 103 57 332 60 83 170 311 101 61 66 102 125 191 153 154 176 108 89 93 300 3 156 246 233 209 189 178 175 210 136 11 122 102 124 161 225